Location: ?????????
(54.7630°N, 39.4991°E)
Time: 07:35:41
(UTC+00:00)

Cosmos 1544 Rocket - Pass Details

Date: 14 April 2026
Orbit: 597 x 624 km, 82.5° (Epoch: 13 May)

Event Time Altitude Azimuth Distance (km) Brightness Sun altitude
Exits shadow 22:20:01 66° 98° (E) 686 3.7 -24.4°
Maximum altitude 22:20:02 66° 97° (E) 686 3.7 -24.4°
Drops below altitude 10° 22:24:26 10° 16° (NNE) 2,004 7.3 -24.2°
Sets 22:26:41 0° 14° (NNE) 2,912 8.4 -24.1°
